Temperature
22 23 22 23 23 23 23 22 22 22 22 21 21 21 21 20 19 19 19 19 18 18 17 16 16 16 15 15 15 15 15 14 15 14 14 14 14 14 14 14 14 14 14 14
22 22 23 23 22 22 22 22 22 22 21 21 21 21 21 21 20 19 19 19 18 18 17 16 16 16 15 15 15 15 15 14 14 14 14 14 14 14 14 14 14 14 14 14
22 22 22 22 22 22 22 22 22 22 21 21 21 21 22 21 20 19 19 18 18 18 17 17 16 16 15 15 15 15 15 14 14 14 14 14 14 14 14 14 14 13 13 13
22 22 22 22 22 22 22 22 22 21 21 21 21 22 22 22 21 20 19 18 18 17 17 16 16 15 15 15 15 15 14 14 14 14 14 14 14 13 13 13 13 13 13 13
22 22 22 22 22 22 22 22 21 21 21 21 22 22 23 22 21 20 20 18 17 17 16 16 16 15 15 15 15 14 14 14 14 14 14 14 13 13 13 13 13 13 13 13
21 21 22 22 21 21 21 21 21 21 21 21 22 22 22 22 21 21 20 19 18 17 16 16 15 15 15 15 15 14 14 14 14 14 14 13 13 13 13 13 13 13 13 13
21 21 21 21 21 21 21 21 21 20 20 21 22 21 22 21 21 20 20 19 18 17 16 15 15 15 15 15 15 14 14 14 14 14 13 13 13 13 13 13 13 12 12 12
20 20 21 21 21 21 21 21 21 20 20 21 21 21 22 20 19 19 18 18 17 17 16 15 15 15 15 15 15 14 14 14 14 13 13 13 13 13 13 13 13 12 12 12
20 20 20 20 21 21 21 21 22 21 21 21 22 21 21 19 19 18 17 17 16 16 16 15 15 15 14 14 14 14 14 14 13 13 13 13 13 13 13 13 12 12 12 12
21 20 20 19 20 19 21 21 21 20 20 20 21 21 21 19 18 18 18 17 16 15 15 15 14 14 14 14 14 14 14 13 13 13 13 13 13 13 12 12 12 12 12 12
20 20 20 20 20 20 19 20 20 21 20 20 20 21 20 20 19 18 17 16 16 15 15 14 14 14 14 14 13 13 13 13 13 13 13 13 13 13 12 12 12 12 12 11
19 20 19 20 19 19 20 20 20 20 20 20 20 20 19 19 18 17 17 16 15 14 14 14 14 13 13 13 13 13 13 13 13 12 12 12 12 12 12 12 12 12 11 11
19 19 19 19 19 18 19 19 19 20 20 20 20 20 18 18 17 17 16 15 15 14 13 13 13 13 13 13 13 12 12 12 12 12 12 12 12 12 12 11 11 11 11 11
18 19 19 19 19 19 18 18 18 19 19 20 20 19 18 18 17 16 15 15 14 13 13 13 12 12 12 12 12 12 12 12 12 12 12 12 11 11 11 11 11 11 10 10
18 19 19 18 18 17 17 17 17 18 19 19 19 19 18 18 17 16 14 14 13 13 12 12 12 12 12 12 12 12 12 12 12 12 11 11 11 11 11 10 10 10 10 10
18 18 18 17 17 17 16 17 17 17 17 18 18 17 18 17 16 15 14 13 13 12 12 12 12 12 12 12 11 11 11 11 11 11 11 11 11 10 10 10 10 10 10 10
18 18 18 18 17 17 17 17 17 16 16 17 17 17 17 16 15 15 14 13 12 12 12 12 12 12 11 11 11 11 11 11 11 11 11 11 10 10 10 10 10 9 9 9
17 18 18 17 17 16 17 16 16 16 16 16 16 16 16 15 14 14 13 12 12 12 12 11 11 11 11 11 11 11 11 11 10 10 10 10 10 10 10 9 9 9 9 9
17 17 17 17 17 17 16 15 15 15 15 15 15 15 14 13 13 13 12 12 12 11 11 11 11 11 11 11 10 10 10 10 10 10 10 10 10 9 9 9 9 9 8 8
15 16 17 16 16 16 16 15 14 15 15 15 14 14 13 13 15 15 12 11 11 11 11 10 10 10 10 10 10 10 10 10 9 9 9 9 9 9 9 9 9 8 8 8
15 15 16 16 16 16 15 13 14 15 16 14 13 12 12 13 14 12 11 10 10 10 10 10 10 10 10 10 10 9 9 9 9 9 9 9 9 9 8 8 8 8 8 8
15 15 15 15 15 16 13 13 14 15 13 12 12 12 11 11 11 10 10 10 10 10 10 10 10 10 9 9 9 9 9 9 9 9 9 8 8 8 8 8 8 8 7 7
14 15 15 15 15 14 12 13 12 12 12 12 11 11 10 10 10 10 9 9 9 9 9 9 9 9 9 9 9 9 8 8 8 8 8 8 8 8 8 7 7 7 7 7
14 13 13 14 14 13 12 11 11 11 11 11 11 11 10 10 10 9 9 9 9 9 9 9 9 9 9 9 9 8 8 8 8 7 7 7 7 7 7 7 7 7 7 6
13 12 13 14 14 12 11 11 11 10 10 10 10 10 10 10 9 9 9 8 8 8 8 8 8 8 8 8 8 8 7 7 7 7 7 7 7 7 7 6 6 6 6 6
12 13 13 14 14 13 13 11 11 10 10 10 10 10 9 9 9 9 8 8 8 8 8 8 8 8 8 7 7 7 7 7 7 7 6 6 6 6 6 6 6 6 6 6
Wind_Speed
6 7 7 8 8 6 6 6 5 3 4 6 6 6 5 7 8 8 8 8 8 7 6 6 5 5 5 4 4 5 5 4 4 3 2 2 2 2 3 3 4 4 4 4
7 7 6 5 6 7 8 7 5 3 3 5 5 6 5 7 8 8 8 8 8 7 7 7 6 6 5 5 5 5 4 4 4 2 2 2 2 2 3 3 3 3 3 4
8 3 5 7 7 8 8 8 6 4 3 5 5 6 7 6 7 6 6 7 8 8 8 8 7 7 6 5 5 5 5 5 4 3 2 2 2 2 2 2 2 2 2 3
6 4 5 7 8 8 7 5 5 6 6 4 6 5 5 7 7 7 7 7 7 7 7 7 7 7 7 6 5 5 5 5 4 4 3 2 2 1 1 1 1 1 2 2
4 4 5 7 7 7 5 5 5 6 7 6 6 6 4 5 6 7 7 7 7 7 7 7 7 7 7 6 6 5 5 5 4 3 3 2 1 1 1 0 1 1 1 1
2 3 3 3 2 5 6 6 4 5 6 8 8 8 4 4 5 4 5 6 6 7 7 6 7 6 6 6 5 5 5 5 4 3 3 3 2 1 1 0 0 0 0 1
4 4 3 3 4 6 7 6 4 5 6 6 4 7 4 1 1 3 5 5 5 6 7 6 7 7 6 6 6 5 6 5 4 4 4 3 2 2 2 1 1 1 1 1
6 6 5 4 6 6 8 9 6 4 5 3 5 6 2 2 0 1 3 4 4 5 6 6 7 7 7 6 6 6 6 5 4 4 4 3 3 2 1 2 1 1 1 1
5 5 3 2 3 5 6 8 5 5 5 6 5 4 3 1 1 1 2 3 3 3 5 6 6 7 6 6 6 6 6 5 5 4 4 3 3 3 2 2 1 1 1 1
4 4 3 3 4 1 4 5 5 5 4 6 5 6 3 3 3 2 2 2 3 3 4 5 5 6 6 6 6 6 6 5 5 4 3 2 3 2 2 2 2 2 2 1
4 5 3 4 6 6 5 6 5 5 5 5 5 2 2 0 2 4 3 2 2 2 3 4 4 5 5 5 5 5 5 5 4 4 3 3 2 2 2 2 2 2 2 2
3 4 5 4 2 1 5 7 8 7 7 7 6 2 4 2 1 2 2 2 2 2 2 3 3 4 4 4 4 4 5 5 4 4 3 3 2 2 2 2 2 2 2 2
3 4 4 3 4 4 4 5 7 8 7 8 8 3 3 1 1 1 2 2 2 3 3 3 3 3 3 4 4 4 4 4 4 4 4 3 3 2 2 2 2 2 2 2
3 6 7 6 3 2 4 5 7 9 9 9 8 6 3 3 2 1 1 2 2 3 3 2 2 2 2 3 3 3 3 3 3 3 3 3 3 2 2 2 2 2 2 2
3 6 6 6 3 3 5 6 7 10 11 9 8 7 7 5 4 3 2 2 2 2 2 2 1 1 2 2 3 3 3 3 3 3 2 2 2 2 2 2 2 2 2 2
3 5 4 5 3 4 5 7 9 9 10 10 10 9 7 4 2 3 3 3 3 3 2 2 1 1 1 1 2 3 3 3 3 3 2 2 2 2 2 2 2 2 2 2
4 5 5 6 3 4 7 7 7 7 6 8 10 8 4 3 3 4 4 4 4 4 3 2 2 2 2 2 2 2 3 3 3 3 2 2 2 2 2 2 2 2 2 2
5 6 5 5 4 6 1 1 2 5 5 6 6 5 4 3 3 2 3 3 4 4 3 3 2 2 2 2 2 2 3 3 3 3 2 2 2 2 2 2 2 3 3 3
5 5 4 5 6 6 3 1 2 4 4 3 5 5 3 1 1 2 2 3 3 3 3 3 3 3 3 2 2 2 3 3 3 2 3 2 3 2 2 2 3 3 3 3
2 5 5 5 6 6 1 1 2 4 4 1 3 3 2 2 3 2 0 1 1 1 2 2 2 3 3 3 3 3 3 3 2 2 3 3 3 3 3 3 3 3 3 3
4 4 6 8 7 5 1 1 3 4 2 2 1 1 2 3 3 2 1 0 1 1 2 2 2 2 2 3 3 3 3 3 3 2 2 2 3 3 3 3 2 2 3 3
5 5 6 6 7 5 2 3 3 1 3 1 1 0 1 1 3 2 1 1 0 1 2 2 2 2 2 3 4 4 3 3 2 2 2 2 2 2 2 2 2 2 2 3
5 4 3 4 3 1 3 2 0 1 1 1 0 0 1 1 1 2 1 1 1 0 2 2 2 2 2 2 3 3 3 2 2 2 3 2 2 2 2 2 2 2 2 2
4 3 4 4 5 3 3 3 2 2 1 1 1 1 1 0 0 1 2 2 1 0 0 2 2 2 2 2 3 3 2 3 3 3 3 2 2 2 2 2 2 2 2 2
5 5 5 6 5 4 5 5 4 2 2 1 1 1 2 1 1 1 1 2 1 1 1 1 2 2 2 2 2 3 3 3 4 3 3 2 2 2 2 2 2 3 2 2
6 7 7 6 5 5 5 4 4 4 3 3 2 2 2 2 2 1 2 2 1 1 1 2 2 2 3 2 3 3 3 4 4 3 2 2 2 2 2 2 2 2 3 3
Wind_Direction
183 192 199 202 209 215 208 210 209 203 182 202 220 231 222 195 203 206 201 197 195 192 182 176 173 165 160 153 145 136 132 127 122 116 111 101 94 84 73 64 60 64 66 65
188 206 210 211 203 204 207 210 208 187 182 212 228 242 231 212 212 214 213 206 202 196 187 180 178 173 172 164 159 153 148 142 137 128 120 115 108 95 74 70 64 60 68 68
209 193 189 198 201 211 217 223 218 214 195 208 233 234 218 209 212 212 217 216 207 202 197 186 184 181 178 177 174 169 164 157 152 141 126 121 116 117 102 87 68 53 55 65
212 199 192 203 209 219 223 218 217 213 220 226 227 250 215 199 202 211 212 205 205 201 198 191 185 184 184 185 184 178 171 165 157 152 155 158 157 142 100 84 75 63 53 51
194 191 209 216 214 215 223 186 198 217 238 248 229 249 226 189 218 222 213 205 201 200 198 195 190 189 187 181 183 183 175 169 165 165 161 180 166 142 122 114 80 48 52 34
209 198 220 223 191 194 174 172 182 214 236 244 231 235 246 206 228 218 207 205 199 194 192 194 190 185 181 173 175 180 179 175 175 179 179 188 177 172 170 197 252 265 115 1
204 200 183 181 174 177 201 207 216 217 220 238 202 230 246 99 242 233 214 204 195 189 186 185 183 181 178 173 172 177 178 181 181 187 192 198 197 203 207 220 241 267 265 280
216 208 191 207 220 213 216 223 234 246 241 243 203 227 200 83 36 233 196 190 183 183 183 182 183 181 179 177 178 178 180 184 187 198 204 207 204 217 229 243 250 260 281 288
227 213 168 221 235 216 212 220 239 263 267 262 223 219 212 137 162 132 149 162 176 182 182 182 180 179 179 180 183 182 182 185 191 205 211 212 214 224 240 252 253 258 272 292
249 240 197 176 168 182 245 204 204 228 242 251 238 233 239 206 220 201 190 194 191 183 174 175 177 178 179 181 183 181 184 187 189 197 207 216 219 224 236 241 248 259 274 282
242 237 211 197 212 214 189 196 219 232 248 259 258 229 55 216 206 210 208 197 186 179 173 169 172 174 174 174 176 178 183 186 185 191 197 199 207 214 220 232 248 258 271 273
221 245 240 217 142 227 234 226 221 234 238 244 263 265 90 84 110 199 196 174 152 147 149 154 159 164 170 171 173 178 185 187 188 191 195 198 199 205 214 229 242 252 266 270
196 235 242 199 187 182 214 225 233 240 251 245 247 231 100 87 57 160 172 162 145 132 127 131 142 155 169 172 175 177 181 184 182 185 191 193 196 202 218 233 243 250 262 266
238 239 246 254 275 227 233 231 224 226 241 247 249 261 272 276 273 225 191 182 154 138 134 130 136 146 160 176 177 175 176 171 173 180 185 192 198 202 215 227 239 253 260 266
239 247 244 264 273 249 257 254 230 233 245 255 263 268 278 267 249 224 200 186 175 161 151 150 153 154 155 164 179 176 170 168 169 172 183 199 205 205 212 225 238 244 255 263
237 248 244 246 234 235 262 261 240 240 251 250 258 272 285 277 235 214 207 202 206 204 201 200 195 174 179 178 187 184 175 173 171 174 182 186 202 205 214 227 237 248 260 266
220 236 248 254 237 257 261 256 234 221 233 243 254 265 258 244 227 217 211 215 217 215 215 217 218 208 207 211 200 188 179 174 172 172 173 181 204 214 223 229 234 248 259 266
226 228 243 260 249 249 288 47 227 226 259 259 264 274 264 263 255 229 218 221 223 217 218 223 223 215 213 209 203 184 175 177 179 181 185 198 220 229 233 236 247 255 259 260
229 220 229 240 252 259 261 232 230 229 260 278 260 266 277 304 187 212 222 236 236 226 222 216 212 208 200 188 184 179 175 180 186 197 205 212 220 225 230 236 249 258 262 262
182 218 229 234 248 256 275 360 269 231 250 326 267 258 233 199 231 247 50 271 236 220 215 206 200 198 194 185 178 183 186 189 206 220 224 223 225 227 236 242 248 255 260 262
186 202 224 236 245 257 354 16 188 218 309 34 281 223 189 225 314 11 50 1 199 194 188 189 193 198 199 187 184 192 198 214 222 225 226 224 228 236 244 246 248 254 259 263
213 210 218 226 236 246 114 152 199 325 32 45 32 173 193 357 37 51 60 34 111 179 181 186 192 204 207 197 195 200 213 226 229 224 227 232 237 244 250 251 252 256 263 265
222 225 229 226 242 18 163 183 324 359 10 25 7 208 153 90 39 33 38 26 14 155 175 179 187 200 211 211 212 215 216 216 222 226 227 234 242 241 237 240 252 257 263 272
214 219 223 238 247 244 233 239 254 244 271 311 291 179 178 193 355 347 356 4 2 296 194 184 188 201 218 226 228 233 218 215 215 224 230 230 236 245 231 235 245 254 259 272
221 195 219 240 252 256 242 241 244 244 271 278 265 233 225 241 249 289 312 323 324 300 257 228 222 228 238 233 230 231 216 212 219 223 230 235 239 250 245 243 257 254 253 271
212 211 218 237 229 230 238 232 232 235 241 238 233 238 239 241 250 269 286 296 304 283 265 257 255 251 247 238 237 236 223 218 220 221 228 236 242 254 262 261 268 290 276 286
Height
1507 1507 1508 1507 1507 1509 1511 1514 1516 1516 1518 1521 1521 1522 1523 1526 1528 1529 1531 1532 1534 1536 1538 1539 1540 1541 1542 1543 1544 1544 1544 1545 1545 1545 1546 1546 1546 1546 1546 1545 1545 1545 1545 1545
1506 1506 1506 1507 1509 1510 1512 1515 1516 1517 1518 1519 1519 1519 1520 1523 1525 1527 1528 1530 1532 1534 1536 1537 1539 1540 1541 1542 1543 1544 1544 1545 1545 1545 1546 1546 1546 1546 1546 1546 1545 1545 1545 1545
1504 1505 1507 1508 1509 1510 1511 1512 1514 1517 1519 1519 1519 1519 1517 1519 1522 1525 1526 1528 1529 1532 1533 1535 1537 1538 1539 1541 1542 1543 1544 1544 1545 1545 1546 1546 1546 1546 1546 1546 1545 1545 1545 1545
1503 1505 1507 1507 1508 1509 1511 1510 1513 1516 1519 1518 1518 1519 1512 1513 1518 1521 1524 1526 1527 1529 1531 1533 1534 1536 1537 1539 1540 1542 1543 1544 1545 1545 1546 1546 1546 1547 1547 1546 1546 1546 1545 1545
1504 1505 1506 1507 1506 1508 1509 1511 1513 1515 1516 1517 1516 1517 1509 1511 1515 1517 1520 1523 1525 1527 1529 1530 1532 1533 1536 1537 1538 1540 1542 1543 1544 1545 1545 1546 1546 1546 1546 1546 1546 1545 1545 1544
1504 1506 1506 1506 1507 1508 1510 1511 1514 1513 1514 1521 1513 1516 1511 1508 1510 1513 1517 1520 1522 1524 1526 1528 1530 1532 1534 1535 1536 1538 1540 1541 1543 1543 1544 1545 1545 1545 1545 1545 1545 1545 1544 1544
1505 1505 1506 1507 1507 1509 1509 1512 1519 1520 1520 1516 1509 1513 1510 1507 1510 1512 1515 1518 1520 1522 1524 1526 1528 1529 1531 1533 1534 1536 1538 1540 1541 1542 1543 1544 1545 1545 1545 1545 1544 1544 1544 1543
1508 1508 1505 1505 1504 1506 1506 1508 1517 1523 1519 1511 1510 1510 1506 1509 1512 1513 1515 1517 1518 1520 1522 1523 1525 1527 1529 1531 1533 1534 1536 1538 1539 1541 1542 1543 1543 1543 1544 1544 1543 1543 1543 1542
1505 1505 1505 1506 1505 1505 1506 1506 1504 1511 1512 1514 1506 1504 1505 1508 1510 1513 1514 1516 1517 1518 1520 1522 1523 1525 1527 1529 1531 1532 1534 1536 1538 1539 1540 1541 1541 1542 1542 1542 1542 1542 1541 1541
1503 1506 1504 1506 1506 1508 1506 1504 1508 1511 1517 1516 1508 1505 1504 1506 1509 1511 1513 1515 1516 1517 1519 1520 1522 1523 1525 1527 1529 1531 1533 1534 1536 1537 1538 1539 1539 1539 1540 1540 1540 1540 1540 1539
1504 1506 1506 1505 1504 1505 1507 1508 1506 1506 1508 1512 1511 1506 1502 1504 1507 1510 1512 1514 1516 1516 1518 1519 1520 1522 1524 1526 1528 1529 1531 1533 1534 1535 1536 1536 1537 1537 1538 1538 1538 1538 1538 1537
1505 1504 1504 1502 1504 1506 1505 1503 1505 1510 1508 1506 1507 1509 1505 1506 1508 1510 1512 1514 1515 1516 1517 1518 1519 1521 1522 1524 1526 1527 1529 1530 1531 1533 1534 1535 1535 1535 1536 1536 1536 1536 1536 1535
1506 1505 1507 1506 1508 1507 1506 1505 1505 1503 1504 1503 1506 1508 1506 1507 1509 1510 1512 1513 1514 1515 1516 1517 1518 1519 1521 1522 1523 1525 1526 1528 1529 1531 1532 1533 1533 1533 1534 1534 1534 1534 1534 1533
1506 1502 1505 1507 1503 1502 1505 1506 1505 1504 1503 1502 1501 1502 1505 1506 1508 1510 1511 1513 1514 1514 1515 1516 1517 1518 1519 1520 1522 1523 1524 1525 1527 1528 1529 1530 1530 1531 1531 1532 1532 1532 1532 1532
1505 1502 1501 1502 1503 1505 1505 1505 1505 1504 1500 1501 1499 1501 1502 1504 1507 1509 1511 1512 1513 1513 1514 1515 1516 1517 1518 1519 1520 1521 1522 1523 1525 1526 1527 1528 1528 1529 1529 1529 1530 1530 1529 1529
1504 1502 1501 1503 1503 1504 1506 1505 1504 1504 1502 1501 1501 1502 1502 1504 1507 1508 1509 1510 1511 1512 1513 1514 1515 1515 1516 1517 1518 1519 1520 1521 1522 1523 1525 1525 1526 1526 1527 1527 1527 1527 1527 1527
1502 1501 1502 1500 1503 1504 1504 1501 1502 1502 1502 1501 1501 1501 1502 1504 1505 1506 1507 1508 1509 1510 1511 1512 1513 1513 1514 1515 1516 1517 1518 1519 1520 1521 1522 1523 1523 1524 1524 1524 1524 1524 1524 1524
1501 1500 1501 1501 1504 1508 1500 1500 1500 1501 1502 1501 1500 1501 1502 1503 1504 1505 1506 1507 1507 1508 1509 1510 1511 1512 1512 1513 1514 1515 1516 1517 1518 1519 1519 1520 1521 1521 1521 1521 1521 1522 1522 1522
1502 1501 1501 1502 1502 1499 1499 1500 1501 1501 1500 1501 1501 1502 1503 1503 1503 1503 1505 1505 1506 1507 1507 1508 1509 1509 1510 1511 1511 1513 1514 1515 1516 1516 1517 1518 1518 1518 1518 1518 1518 1519 1519 1519
1504 1501 1500 1501 1503 1501 1498 1500 1501 1502 1500 1500 1501 1501 1502 1502 1500 1501 1503 1503 1504 1505 1505 1506 1506 1507 1508 1508 1509 1510 1511 1512 1513 1513 1514 1515 1515 1515 1515 1516 1516 1516 1516 1516
1501 1501 1501 1500 1500 1496 1499 1501 1501 1502 1499 1500 1500 1501 1502 1502 1501 1502 1501 1501 1502 1502 1503 1503 1504 1505 1505 1506 1507 1508 1509 1509 1510 1511 1512 1512 1512 1512 1512 1513 1513 1513 1513 1513
1497 1498 1499 1498 1499 1499 1500 1500 1500 1499 1500 1500 1500 1501 1502 1502 1501 1501 1500 1500 1500 1500 1500 1500 1501 1502 1503 1504 1505 1505 1506 1507 1508 1508 1509 1509 1510 1510 1510 1510 1510 1510 1510 1510
1496 1496 1495 1496 1497 1498 1499 1499 1499 1500 1500 1500 1500 1500 1501 1500 1500 1500 1499 1499 1498 1498 1498 1498 1499 1500 1501 1502 1502 1503 1504 1504 1505 1505 1506 1506 1507 1507 1507 1507 1506 1506 1506 1507
1496 1499 1497 1496 1495 1497 1498 1499 1498 1498 1499 1499 1500 1500 1499 1499 1499 1499 1499 1498 1497 1497 1497 1497 1498 1498 1499 1499 1500 1501 1501 1502 1502 1502 1503 1503 1503 1503 1504 1504 1504 1503 1503 1503
1493 1496 1494 1493 1494 1495 1496 1497 1497 1497 1497 1498 1498 1498 1498 1498 1498 1498 1497 1497 1496 1496 1496 1496 1496 1496 1497 1497 1497 1498 1499 1499 1500 1500 1500 1500 1500 1500 1500 1500 1500 1500 1500 1500
1491 1491 1490 1488 1490 1491 1492 1494 1495 1495 1495 1496 1496 1496 1497 1497 1497 1496 1496 1495 1495 1494 1494 1494 1495 1495 1495 1495 1495 1495 1496 1496 1497 1497 1497 1497 1497 1497 1497 1497 1497 1497 1497 1497